Ясно и безоблачно
Ясно и безоблачно
Ясно с отдельными перистыми облаками
Перистая облачность
Перистая облачность
Перистая облачность
Ясно с отдельными перистыми облаками
(°C)
27°
27°
28°
28°
29°
29°
29°
29°
29°
29°
28°
28°
27°
27°
(°C)
27°
29°
29°
30°
29°
28°
26°
ЮЮВ
Ю
Ю
Ю
Ю
Ю
Ю
(km/h)
12-28
14-37
15-37
16-38
17-40
16-38
15-38
(мм)
0
0
0
0
0
0
0
(%)
0
0
0
0
0
0
5

Высота солнцестояния

/ 52.8°
sun-icon
UV 7
06:15
20:51
Растущая луна (156°)
18:58
04:48

METAR для Ioánnina (LGIO)

Время Условия Температура/
Точка росы
Ветер Видимость Погода Облачность Давление Изменить Необработанный
VFR 26°C / 16°C 130º 5kt 9700m - Clouds and Visibility OK 1013 - LGIO 210720Z 13005KT CAVOK 26/16 Q1013
VFR 25°C / 17°C 150º 2kt 9700m - Clouds and Visibility OK 1013 - LGIO 210650Z 15002KT CAVOK 25/17 Q1013
VFR 22°C / 18°C 220º 1kt 9700m - Clouds and Visibility OK 1014 - LGIO 210620Z 22001KT CAVOK 22/18 Q1014
21°C / 18°C 2kt - 1014 - LGIO 210550Z AUTO VRB02KT //// // ////// 21/18 Q1014 RE//
20°C / 17°C 1kt - 1013 - LGIO 210520Z AUTO VRB01KT //// // ////// 20/17 Q1013 RE//
18°C / 17°C variable 0kt - 1013 - LGIO 210450Z AUTO 00000KT //// // ////// 18/17 Q1013 RE//
15°C / 15°C 1kt - 1014 - LGIO 210420Z AUTO VRB01KT //// // ////// 15/15 Q1014 RE//
15°C / 15°C variable 0kt - 1014 - LGIO 210350Z AUTO 00000KT //// // ////// 15/15 Q1014 RE//
14°C / 14°C 1kt - 1013 - LGIO 210320Z AUTO VRB01KT //// // ////// 14/14 Q1013 RE//
14°C / 14°C 2kt - 1013 - LGIO 210250Z AUTO VRB02KT //// // ////// 14/14 Q1013 RE//
14°C / 14°C variable 0kt - 1012 - LGIO 210220Z AUTO 00000KT //// // ////// 14/14 Q1012 RE//
15°C / 15°C variable 0kt - 1013 - LGIO 210150Z AUTO 00000KT //// // ////// 15/15 Q1013 RE//
15°C / 15°C 1kt - 1013 - LGIO 210120Z AUTO VRB01KT //// // ////// 15/15 Q1013 RE//
16°C / 15°C 1kt - 1013 - LGIO 210050Z AUTO VRB01KT //// // ////// 16/15 Q1013 RE//
16°C / 15°C 1kt - 1013 - LGIO 210020Z AUTO VRB01KT //// // ////// 16/15 Q1013 RE//
17°C / 16°C variable 0kt - 1013 - LGIO 202350Z AUTO 00000KT //// // ////// 17/16 Q1013 RE//
17°C / 16°C 1kt - 1013 - LGIO 202320Z AUTO VRB01KT //// // ////// 17/16 Q1013 RE//
17°C / 16°C variable 0kt - 1013 - LGIO 202250Z AUTO 00000KT //// // ////// 17/16 Q1013 RE//
18°C / 16°C 2kt - 1013 - LGIO 202220Z AUTO VRB02KT //// // ////// 18/16 Q1013 RE//
19°C / 17°C 1kt - 1013 - LGIO 202150Z AUTO VRB01KT //// // ////// 19/17 Q1013 RE//
19°C / 17°C 1kt - 1013 - LGIO 202120Z AUTO VRB01KT //// // ////// 19/17 Q1013 RE//
20°C / 17°C variable 0kt - 1013 - LGIO 202050Z AUTO 00000KT //// // ////// 20/17 Q1013 RE//
21°C / 18°C 1kt - 1013 - LGIO 202020Z AUTO VRB01KT //// // ////// 21/18 Q1013 RE//
22°C / 18°C 2kt - 1013 - LGIO 201950Z AUTO VRB02KT //// // ////// 22/18 Q1013 RE//

VFR

26°C / 16°C

[Больше]
Ветер 130º 5kt
Видимость 9700m
Погода -
Облачность Clouds and Visibility OK
Давление 1013
Изменить -
Необработанный LGIO 210720Z 13005KT CAVOK 26/16 Q1013

VFR

25°C / 17°C

[Больше]
Ветер 150º 2kt
Видимость 9700m
Погода -
Облачность Clouds and Visibility OK
Давление 1013
Изменить -
Необработанный LGIO 210650Z 15002KT CAVOK 25/17 Q1013

VFR

22°C / 18°C

[Больше]
Ветер 220º 1kt
Видимость 9700m
Погода -
Облачность Clouds and Visibility OK
Давление 1014
Изменить -
Необработанный LGIO 210620Z 22001KT CAVOK 22/18 Q1014

21°C / 18°C

[Больше]
Ветер 2kt
Видимость
Погода -
Облачность
Давление 1014
Изменить -
Необработанный LGIO 210550Z AUTO VRB02KT //// // ////// 21/18 Q1014 RE//

20°C / 17°C

[Больше]
Ветер 1kt
Видимость
Погода -
Облачность
Давление 1013
Изменить -
Необработанный LGIO 210520Z AUTO VRB01KT //// // ////// 20/17 Q1013 RE//

18°C / 17°C

[Больше]
Ветер variable 0kt
Видимость
Погода -
Облачность
Давление 1013
Изменить -
Необработанный LGIO 210450Z AUTO 00000KT //// // ////// 18/17 Q1013 RE//

15°C / 15°C

[Больше]
Ветер 1kt
Видимость
Погода -
Облачность
Давление 1014
Изменить -
Необработанный LGIO 210420Z AUTO VRB01KT //// // ////// 15/15 Q1014 RE//

15°C / 15°C

[Больше]
Ветер variable 0kt
Видимость
Погода -
Облачность
Давление 1014
Изменить -
Необработанный LGIO 210350Z AUTO 00000KT //// // ////// 15/15 Q1014 RE//

14°C / 14°C

[Больше]
Ветер 1kt
Видимость
Погода -
Облачность
Давление 1013
Изменить -
Необработанный LGIO 210320Z AUTO VRB01KT //// // ////// 14/14 Q1013 RE//

14°C / 14°C

[Больше]
Ветер 2kt
Видимость
Погода -
Облачность
Давление 1013
Изменить -
Необработанный LGIO 210250Z AUTO VRB02KT //// // ////// 14/14 Q1013 RE//

14°C / 14°C

[Больше]
Ветер variable 0kt
Видимость
Погода -
Облачность
Давление 1012
Изменить -
Необработанный LGIO 210220Z AUTO 00000KT //// // ////// 14/14 Q1012 RE//

15°C / 15°C

[Больше]
Ветер variable 0kt
Видимость
Погода -
Облачность
Давление 1013
Изменить -
Необработанный LGIO 210150Z AUTO 00000KT //// // ////// 15/15 Q1013 RE//

15°C / 15°C

[Больше]
Ветер 1kt
Видимость
Погода -
Облачность
Давление 1013
Изменить -
Необработанный LGIO 210120Z AUTO VRB01KT //// // ////// 15/15 Q1013 RE//

16°C / 15°C

[Больше]
Ветер 1kt
Видимость
Погода -
Облачность
Давление 1013
Изменить -
Необработанный LGIO 210050Z AUTO VRB01KT //// // ////// 16/15 Q1013 RE//

16°C / 15°C

[Больше]
Ветер 1kt
Видимость
Погода -
Облачность
Давление 1013
Изменить -
Необработанный LGIO 210020Z AUTO VRB01KT //// // ////// 16/15 Q1013 RE//

17°C / 16°C

[Больше]
Ветер variable 0kt
Видимость
Погода -
Облачность
Давление 1013
Изменить -
Необработанный LGIO 202350Z AUTO 00000KT //// // ////// 17/16 Q1013 RE//

17°C / 16°C

[Больше]
Ветер 1kt
Видимость
Погода -
Облачность
Давление 1013
Изменить -
Необработанный LGIO 202320Z AUTO VRB01KT //// // ////// 17/16 Q1013 RE//

17°C / 16°C

[Больше]
Ветер variable 0kt
Видимость
Погода -
Облачность
Давление 1013
Изменить -
Необработанный LGIO 202250Z AUTO 00000KT //// // ////// 17/16 Q1013 RE//

18°C / 16°C

[Больше]
Ветер 2kt
Видимость
Погода -
Облачность
Давление 1013
Изменить -
Необработанный LGIO 202220Z AUTO VRB02KT //// // ////// 18/16 Q1013 RE//

19°C / 17°C

[Больше]
Ветер 1kt
Видимость
Погода -
Облачность
Давление 1013
Изменить -
Необработанный LGIO 202150Z AUTO VRB01KT //// // ////// 19/17 Q1013 RE//

19°C / 17°C

[Больше]
Ветер 1kt
Видимость
Погода -
Облачность
Давление 1013
Изменить -
Необработанный LGIO 202120Z AUTO VRB01KT //// // ////// 19/17 Q1013 RE//

20°C / 17°C

[Больше]
Ветер variable 0kt
Видимость
Погода -
Облачность
Давление 1013
Изменить -
Необработанный LGIO 202050Z AUTO 00000KT //// // ////// 20/17 Q1013 RE//

21°C / 18°C

[Больше]
Ветер 1kt
Видимость
Погода -
Облачность
Давление 1013
Изменить -
Необработанный LGIO 202020Z AUTO VRB01KT //// // ////// 21/18 Q1013 RE//

22°C / 18°C

[Больше]
Ветер 2kt
Видимость
Погода -
Облачность
Давление 1013
Изменить -
Необработанный LGIO 201950Z AUTO VRB02KT //// // ////// 22/18 Q1013 RE//

TAF для Ioánnina (LGIO)

From till


From till Wind 3kt. Visibility 9700m. Few Clouds 2500ft.
Temporarly from till Scattered Clouds 2500ft.

Необработанный: TAF LGIO 210500Z 2106/2115 VRB03KT 9999 FEW025 TEMPO 2110/2115 SCT025

Радарный и сверхкраткосрочный прогноз осадков для Ioánnina

Морось
Незначительные
Умеренные
Сильные
Очень Сильные
Град

Индикатор местности находится на Ioánnina. Эта анимация показывает радар осадков для выбранного диапазона времени, а также 2h прогноз. Оранжевые кресты обозначают молнию. Данные предоставлены nowcast.de (доступны в США, Европе, Австралии). Морось или небольшой снег могут быть невидимы для радара. Интенсивность осадков имеет цветовую кодировку - от бирюзового до красного.

Текущие спутниковые изображения и снимки дождя для Ioánnina, Греция

Указатель местности находится на Ioánnina. [Больше]

Спутниковое изображение в реальном времени сочетает в себе видимый свет в дневное время с инфракрасным излучением в ночное время. Ночью изображение получается не темным, так как инфракрасное излучение может обнаружить разницу температур. К сожалению, низкие облака и туман трудно отличить от температуры у поверхности земли и поэтому могут быть почти незаметны ночью. Спутниковые снимки Meteosat для Европы обновляются каждые 5 минут в режиме реального времени.Снимки GOES-16/GOES-17 (Северная и Южная Америка) и Химавари (Азия) обновляются каждые 10 минут.

Осадки оцениваются по данным радаров и спутников. Оценка осадков со спутников менее точна ночью, чем днем.

© 2024 meteoblue, NOAA Satellites GOES-16 and EUMETSAT. Данные о молниях предоставляются со стороны nowcast.

Обратно к последним данным
×
Привет,
похоже, что вы используете блокировщик рекламы.

Реклама необходима для поддержания нашего бесплатного сайта с уникальной детализацией и точностью.

Пожалуйста, внесите www.meteoblue.com в белый список вашего блокировщика рекламы или рассмотрите возможность покупки одного из наших продуктов:

У вас уже есть подписка?
Тогда, пожалуйста, логин.